Dewpoint
57 56 52 37 29 31 23 21 23 20 29 31 32 34 39 41 38 41 56 63 65 66 69 70 70 70 69 68 66 67 67 65 67 67 66 65 66 65 65 64 62 61 60 59 58 58 58 60 61
56 53 39 35 27 20 18 23 23 27 28 26 28 24 26 34 53 56 57 64 66 66 69 70 70 70 69 69 67 67 67 67 69 68 67 65 66 64 64 63 61 60 60 59 58 59 59 60 61
53 52 36 31 23 13 17 16 20 24 25 25 24 24 23 29 56 58 60 64 65 67 69 69 70 70 69 68 68 67 68 69 69 67 66 66 65 63 63 61 60 59 59 58 59 59 59 59 60
47 40 35 30 23 22 16 19 23 24 25 23 23 21 23 33 52 59 63 63 64 68 69 70 70 70 70 69 67 67 68 69 68 67 65 65 62 62 61 60 60 59 59 59 59 58 57 57 56
44 36 29 26 23 23 20 21 24 24 25 24 24 20 22 42 59 60 61 63 63 68 69 70 69 69 68 67 67 68 69 68 66 65 63 63 62 61 60 60 59 59 59 59 59 57 55 54 57
38 35 27 17 21 23 23 24 25 25 26 26 24 24 25 51 56 57 60 62 63 66 69 68 69 69 68 67 67 69 69 68 66 65 63 62 61 60 59 59 59 59 59 59 57 56 54 58 59
36 32 27 25 24 26 25 26 25 25 25 25 30 28 29 54 52 47 50 61 63 64 68 68 68 68 68 67 68 69 68 67 66 64 63 62 61 60 59 58 59 59 59 58 56 55 59 60 60
39 35 30 29 25 24 26 27 27 26 26 28 28 25 28 32 56 55 52 56 61 63 66 68 67 67 68 68 69 68 68 67 65 64 63 62 61 60 59 60 60 59 58 57 57 58 60 60 60
40 34 28 26 26 26 27 28 29 31 30 28 28 28 31 32 37 50 53 55 57 63 64 66 66 66 66 67 68 68 67 66 64 63 62 61 60 59 59 59 58 57 58 57 57 59 60 61 60
39 31 25 30 30 29 33 32 32 32 32 33 32 34 35 36 35 35 39 41 52 56 61 63 62 62 62 64 67 67 66 64 63 62 60 59 59 59 59 56 57 58 58 59 58 60 60 58 59
40 33 36 33 35 37 35 34 34 33 31 33 33 34 35 36 37 37 40 42 46 54 60 60 60 59 59 62 64 66 65 63 61 60 59 58 58 58 58 57 58 58 58 59 60 61 56 58 59
36 38 37 37 36 36 34 34 33 33 33 34 35 36 36 36 38 38 39 42 52 53 55 60 58 58 57 58 58 58 62 61 60 59 58 57 57 57 57 57 58 57 56 57 59 56 56 58 59
37 37 36 37 37 35 35 34 34 33 35 35 36 36 37 37 37 38 40 42 49 53 54 59 58 58 56 56 57 57 57 61 59 58 57 57 56 56 56 57 57 56 54 56 57 54 55 58 59
36 36 35 36 35 36 34 33 34 32 33 33 35 35 36 37 38 38 39 40 50 54 54 54 58 57 54 54 56 56 56 58 60 57 55 56 55 55 56 56 56 54 53 53 53 49 56 57 58
37 34 33 33 33 33 34 32 31 32 33 33 34 35 35 36 38 38 38 40 47 53 54 54 53 52 51 51 54 56 56 57 58 56 54 55 54 55 55 55 55 53 51 50 48 52 56 56 57
35 32 25 24 29 30 33 24 26 30 32 30 29 31 33 34 36 38 40 42 51 53 54 54 53 51 51 50 52 55 56 56 56 56 53 54 54 54 54 54 54 52 50 47 47 54 54 55 55
34 12 25 25 27 29 31 28 28 29 29 28 28 29 31 33 36 38 40 42 51 53 53 52 52 52 53 53 52 53 56 56 57 53 52 52 52 52 53 53 52 50 48 46 50 52 54 54 54
19 27 29 23 25 30 29 29 29 29 29 29 28 27 27 28 32 36 39 44 52 52 51 51 51 52 54 54 54 53 54 55 56 52 49 50 50 50 51 50 49 49 47 46 49 50 51 52 51
23 25 24 27 28 29 28 27 26 25 25 24 23 24 25 27 29 36 41 50 53 53 52 51 51 53 54 53 53 52 51 53 54 52 48 47 48 49 49 48 47 47 46 46 48 49 49 47 47
32 29 26 30 29 28 25 23 23 23 22 21 20 22 25 29 30 37 46 53 53 53 51 50 52 54 54 54 53 53 53 52 52 50 46 46 46 47 47 46 46 46 46 46 47 47 46 46 47
33 31 30 28 28 27 24 21 19 18 19 19 23 25 29 30 31 40 51 52 53 53 51 51 54 55 55 54 55 54 53 52 52 48 45 45 45 46 45 46 46 46 46 45 46 47 46 46 46
30 31 31 29 26 23 24 15 16 11 8 7 14 25 26 29 31 46 51 52 53 53 53 54 57 56 54 53 52 52 50 49 49 45 44 44 45 45 46 46 47 46 46 46 46 47 46 46 45
30 29 26 26 24 24 22 19 13 17 9 10 18 25 28 29 31 47 52 53 54 55 55 56 57 55 54 53 50 49 48 47 45 44 44 44 45 45 46 46 47 47 47 46 46 46 46 46 45
29 27 26 26 24 19 20 14 9 9 13 20 24 27 28 29 30 45 52 55 54 55 55 57 55 54 54 53 52 49 47 44 43 44 43 43 44 45 46 46 47 47 47 46 47 47 46 46 46
28 26 22 20 21 18 20 17 12 13 18 23 24 26 29 31 32 34 52 54 53 55 56 57 56 54 53 53 52 51 49 45 44 44 43 43 44 44 45 45 46 46 47 47 47 47 46 46 46
27 25 19 12 13 14 23 17 13 21 26 21 24 27 28 28 30 37 51 54 54 54 56 56 56 54 53 53 52 52 51 48 45 44 44 44 43 43 44 45 45 46 47 47 47 47 47 47 46
27 25 24 20 18 16 16 16 13 17 23 26 27 28 29 30 31 34 46 55 54 54 55 56 55 55 54 53 52 50 51 50 47 45 45 45 45 44 45 45 45 45 46 47 47 47 47 47 47
28 28 24 24 17 12 10 11 8 18 18 17 20 26 26 28 29 31 37 47 55 55 55 56 56 55 55 54 53 53 51 48 47 47 46 45 45 45 46 46 45 45 45 46 47 47 47 47 47
21 16 21 27 19 9 5 15 19 16 15 13 12 13 16 20 29 31 33 35 46 56 55 55 55 55 55 55 55 53 52 51 48 47 47 48 46 46 46 46 46 46 45 45 46 46 46 46 46
20 17 17 14 15 16 16 16 15 12 10 9 9 8 10 15 28 30 30 32 38 54 55 55 55 55 55 55 55 54 54 52 51 49 48 50 50 47 47 47 47 47 46 46 45 45 46 45 45
Wind_Speed
8 12 2 4 4 3 3 5 5 5 3 2 5 1 2 3 1 3 3 20 15 21 20 20 21 19 21 21 21 19 20 19 18 18 20 18 18 17 17 16 15 15 15 15 15 15 16 17 18
8 3 5 4 4 4 4 4 7 4 3 1 2 4 5 3 2 7 1 8 20 23 21 18 21 20 20 21 21 22 20 21 18 19 17 17 16 16 16 16 15 15 14 15 15 16 16 17 18
4 2 3 5 4 7 6 4 8 4 4 3 2 2 3 2 3 3 1 15 17 20 20 19 22 21 20 21 21 21 20 19 21 17 15 15 15 15 15 15 15 15 15 15 16 17 16 16 17
3 3 4 3 11 7 5 4 5 7 2 4 1 2 3 4 2 5 12 17 17 17 19 21 23 22 24 23 22 20 18 20 20 19 16 14 14 14 14 14 16 16 16 16 17 16 16 16 16
4 4 2 3 7 6 7 5 9 5 4 4 2 3 2 3 8 15 11 13 17 14 14 21 25 21 21 23 22 19 19 21 20 21 19 17 15 14 14 15 15 17 18 18 18 16 16 16 15
3 3 2 7 7 6 5 3 6 4 4 2 1 4 2 6 10 7 15 10 11 17 15 21 25 24 24 24 22 20 19 21 20 19 20 18 16 15 13 14 15 17 18 19 18 17 17 16 13
5 5 5 5 7 8 8 7 8 8 6 5 6 4 1 9 9 8 8 13 12 16 13 18 19 23 25 26 25 23 22 22 21 19 18 18 16 14 15 14 16 17 18 18 18 19 18 16 15
4 3 3 7 5 5 2 3 5 7 8 3 7 7 5 6 9 6 6 8 8 15 15 15 20 20 19 22 26 24 24 22 21 19 18 17 19 15 15 15 15 17 17 17 18 19 18 14 15
3 2 8 6 8 4 2 0 2 1 3 6 9 9 7 5 6 9 7 5 8 8 11 12 7 7 11 14 21 25 24 23 22 19 19 18 15 16 14 12 16 17 17 17 18 19 16 12 14
5 5 10 8 4 3 4 5 4 4 9 11 14 12 10 8 11 12 12 10 9 10 7 11 12 12 8 4 13 18 21 19 17 18 20 17 13 14 12 14 16 16 16 16 18 17 14 13 14
8 9 8 8 7 3 6 8 5 8 22 17 14 16 14 13 14 12 15 15 17 12 11 16 16 15 13 10 3 16 16 15 15 20 20 20 15 13 13 12 12 12 14 12 13 12 11 16 15
7 15 14 7 7 8 11 4 12 15 32 14 15 16 14 16 14 14 14 18 13 15 17 19 19 18 15 8 17 13 2 16 16 17 20 19 17 16 15 13 11 12 11 11 12 12 12 15 15
16 13 13 18 18 15 11 25 18 23 21 22 18 18 21 21 23 21 19 19 18 17 16 19 18 19 17 13 10 9 9 9 18 16 18 18 18 18 17 15 13 15 12 12 13 14 13 15 16
4 10 14 11 20 10 18 29 5 29 9 22 16 22 21 21 24 21 20 23 20 22 21 19 20 17 17 15 15 12 6 12 13 19 18 19 18 20 18 16 16 15 14 13 13 12 15 13 16
6 13 17 19 18 12 9 15 20 30 15 23 23 21 21 22 20 24 25 24 25 22 23 23 22 19 19 17 14 13 19 7 10 13 18 20 19 21 20 17 15 15 15 15 10 11 14 14 13
3 4 11 4 3 8 12 15 18 14 12 18 24 19 19 23 24 24 25 23 23 19 24 22 18 20 19 17 15 16 17 11 4 9 12 21 21 21 22 19 16 14 15 14 13 14 14 15 14
4 16 11 9 9 8 17 7 17 8 10 18 24 18 21 23 19 24 26 25 22 24 23 24 20 20 19 16 15 16 21 18 12 11 14 19 21 22 22 20 16 15 15 14 15 13 16 17 15
15 12 9 12 1 4 12 20 26 23 14 26 30 22 22 21 25 25 26 24 19 23 23 22 20 18 14 14 14 17 21 25 18 14 15 20 20 23 21 20 17 16 15 16 15 17 12 15 15
7 10 14 5 14 16 21 26 28 26 14 25 30 24 25 19 21 22 21 18 20 20 22 19 20 14 14 17 17 21 27 24 15 17 21 21 21 22 21 20 20 18 18 16 18 16 21 15 14
21 21 24 14 16 13 16 24 25 28 27 29 26 23 19 8 11 11 18 19 24 26 23 24 24 16 18 18 19 16 18 22 23 20 19 23 22 22 21 21 21 20 17 19 19 19 14 10 11
21 24 13 18 18 15 10 25 19 21 13 16 11 15 10 9 11 11 17 19 19 22 26 27 16 16 16 13 21 17 13 15 15 19 18 19 23 23 23 22 21 19 20 21 20 19 19 21 6
27 11 17 19 12 12 1 12 7 15 19 26 15 9 7 6 5 14 17 16 19 22 20 19 14 14 15 8 14 31 25 25 25 26 24 20 23 23 21 21 21 20 18 20 19 19 16 19 20
14 9 13 13 11 6 5 9 8 8 16 26 7 3 3 6 9 16 19 21 18 13 17 16 13 15 18 11 12 20 25 25 24 24 22 21 19 22 21 22 22 21 18 18 21 20 19 19 19
12 7 3 4 1 12 15 15 5 7 2 5 3 3 2 3 8 13 14 14 14 15 18 16 16 16 16 18 10 15 18 17 19 17 20 20 19 18 19 20 21 20 19 20 20 20 19 20 17
8 15 5 8 9 12 1 11 13 14 5 4 8 5 5 5 5 11 13 13 14 16 16 15 18 17 17 18 17 15 15 11 19 19 22 21 19 18 21 22 21 21 20 18 17 19 17 19 20
14 19 10 11 10 5 4 9 5 5 11 12 10 5 3 5 2 5 13 13 14 16 14 14 19 17 20 17 16 17 14 10 14 16 16 18 20 22 20 21 20 18 18 17 17 17 17 16 18
8 21 15 2 1 1 5 5 12 18 25 9 9 8 7 9 9 4 5 11 12 14 15 17 17 18 22 23 18 17 20 17 14 18 17 16 13 13 16 17 17 17 20 19 18 17 18 18 17
7 8 11 8 9 9 5 5 5 23 27 29 32 27 26 20 10 9 6 4 10 12 15 16 18 19 20 21 19 18 17 22 22 20 19 19 16 14 15 16 16 17 17 18 18 15 15 18 16
8 8 6 2 4 10 5 4 6 9 19 22 23 24 25 25 27 11 6 5 2 11 10 13 15 16 16 16 18 17 17 15 16 19 17 17 16 19 20 19 17 16 16 16 17 15 15 20 17
18 13 8 4 2 1 2 6 11 12 19 24 25 24 25 23 25 19 9 6 6 6 9 9 9 12 14 16 16 19 18 15 13 16 18 15 15 15 20 20 20 20 21 19 20 19 16 19 18
Wind_Direction
337 326 123 64 127 81 223 253 250 301 111 305 300 92 176 92 68 275 319 186 139 154 162 163 165 164 160 159 155 153 157 157 157 155 148 145 143 141 138 136 133 132 131 128 127 124 123 121 119
342 5 55 99 149 180 229 235 118 105 141 354 76 354 36 90 55 112 162 149 153 155 160 163 164 165 164 158 159 154 167 158 160 147 147 145 147 150 144 139 137 135 133 131 130 125 127 124 122
353 60 116 143 156 209 180 177 147 123 62 128 82 345 341 63 62 79 154 142 145 157 160 165 164 169 168 163 160 163 168 166 152 146 148 150 151 153 148 144 140 139 138 136 134 129 127 126 124
16 44 50 180 220 245 203 196 195 167 140 76 131 289 351 333 84 60 150 145 151 159 163 163 169 177 180 166 164 171 169 164 149 144 151 157 160 153 151 148 144 143 142 139 134 132 132 131 128
50 70 139 240 249 253 250 258 178 174 159 120 81 261 234 30 90 73 128 147 153 160 172 169 173 181 180 169 163 171 171 163 151 151 159 160 160 157 154 152 151 148 145 140 137 137 137 134 123
106 105 163 231 237 252 261 248 175 171 156 134 109 264 282 157 112 85 101 134 158 171 176 180 179 182 178 173 168 171 172 162 156 159 161 159 161 156 159 157 156 149 145 142 140 140 138 129 109
151 150 214 240 262 279 250 156 179 178 173 197 143 226 205 134 123 97 91 113 156 186 182 184 189 187 179 177 171 171 174 165 159 161 163 156 153 157 161 163 160 154 147 143 143 141 138 126 112
129 152 225 229 221 253 181 172 170 176 220 153 157 237 220 176 159 149 126 109 113 174 185 197 188 196 189 178 170 169 171 164 159 160 156 150 143 156 166 169 160 155 147 145 146 144 138 121 118
114 192 232 233 196 213 137 35 240 305 207 207 200 202 189 223 177 177 167 148 138 130 191 209 186 182 207 192 175 166 165 161 158 154 147 143 147 156 172 167 166 158 150 152 150 147 131 118 118
171 205 224 217 178 202 292 270 268 280 258 259 253 259 255 248 256 254 257 245 181 178 166 166 142 117 99 223 179 166 162 162 158 149 145 145 152 156 161 170 168 156 156 155 153 140 128 111 111
185 226 220 249 249 268 284 277 240 267 276 245 243 254 257 261 252 237 238 235 222 197 165 157 143 126 112 97 5 165 161 160 154 152 151 150 155 154 153 161 162 154 160 157 148 141 125 119 118
222 239 237 264 266 296 285 274 262 245 258 254 246 245 246 246 237 241 234 243 216 199 188 170 153 142 128 110 92 32 294 166 160 165 155 153 155 157 157 158 152 155 168 165 153 138 125 120 120
231 254 246 253 271 269 275 270 263 263 255 263 258 250 245 246 247 245 232 230 227 206 192 186 168 159 155 147 148 128 358 202 167 166 165 160 159 162 156 160 161 166 175 175 159 139 131 121 118
239 256 272 270 268 261 266 270 218 265 239 262 255 256 250 239 235 242 244 236 216 210 200 186 190 179 171 178 168 154 141 4 193 172 172 166 166 160 159 163 171 174 182 178 162 151 142 130 126
293 297 299 266 263 258 240 258 242 252 262 264 266 256 256 246 236 231 233 229 216 205 199 189 192 180 180 183 175 164 145 170 311 186 171 172 170 165 160 166 174 180 182 175 168 151 138 130 128
302 278 267 267 202 238 177 254 265 250 244 252 266 256 248 249 238 233 230 219 209 194 190 187 189 192 190 194 182 176 155 164 258 246 189 177 173 171 162 166 182 182 183 171 163 153 145 139 134
230 252 234 288 245 237 195 255 255 276 253 271 269 261 255 252 236 232 224 214 198 192 183 189 192 193 194 198 195 193 170 152 197 190 203 190 177 173 168 166 180 178 181 167 159 151 147 144 135
214 231 238 241 275 220 259 261 275 278 255 268 276 274 266 257 244 233 220 211 180 181 183 182 190 205 191 193 193 192 182 159 180 173 212 193 181 176 169 166 176 173 173 164 151 147 143 145 138
206 236 254 258 290 300 279 278 275 280 270 274 275 275 277 270 257 238 213 185 164 173 179 178 192 186 175 193 193 196 199 179 168 182 206 190 181 177 173 168 169 173 174 168 154 150 147 139 132
245 256 266 286 263 266 275 276 278 278 274 267 268 272 275 265 267 228 189 170 170 178 177 189 198 183 191 199 212 195 193 171 164 173 198 185 173 173 176 169 170 173 165 163 162 157 146 148 161
238 240 253 256 286 276 284 283 265 269 263 266 252 257 250 259 259 197 176 181 174 178 183 197 194 177 186 197 208 211 174 140 161 179 183 177 168 172 173 168 166 171 172 174 171 164 162 164 177
244 226 246 264 270 252 24 289 289 275 278 280 289 248 258 267 217 181 180 185 191 194 188 195 188 156 153 160 168 176 169 163 175 182 182 175 171 170 166 164 164 171 174 176 176 171 169 167 169
242 228 226 261 227 294 240 278 269 263 272 275 260 224 289 237 197 181 187 190 197 192 191 191 162 152 158 167 155 152 158 162 171 179 170 175 173 169 170 168 168 171 176 177 177 176 170 177 178
226 218 80 65 39 264 226 216 263 230 244 337 139 123 75 166 198 199 195 161 190 187 190 181 158 156 156 166 173 153 144 143 149 165 168 176 174 171 174 175 178 178 179 180 181 182 178 181 186
195 177 202 217 207 241 332 212 259 279 271 289 174 195 146 121 101 186 191 176 185 187 178 172 162 159 161 165 170 163 157 155 160 167 178 176 176 180 183 179 180 184 184 183 180 184 182 184 188
198 184 184 196 192 217 152 225 251 283 319 255 277 187 125 89 68 152 189 189 185 188 183 177 170 168 171 172 175 177 181 168 166 174 181 186 188 190 182 185 185 182 179 179 182 185 191 186 192
191 212 203 88 127 302 225 276 295 28 12 352 110 88 31 62 57 48 182 191 201 187 187 189 182 176 178 177 176 177 191 205 192 182 176 182 179 179 177 183 182 179 181 184 187 191 193 192 196
30 340 179 194 210 229 239 239 244 24 25 30 23 18 10 2 39 64 33 185 202 205 200 189 191 188 189 178 172 188 189 185 187 179 183 181 177 173 171 177 182 180 186 185 187 197 197 195 202
1 14 339 235 176 210 187 138 116 58 39 27 17 11 3 359 353 354 47 357 183 209 204 199 191 187 191 183 181 184 189 189 177 181 188 184 184 179 181 184 184 185 188 186 188 196 195 204 206
75 37 33 65 323 58 243 169 134 51 23 12 360 357 356 360 357 342 347 23 20 164 194 205 204 197 190 187 180 182 196 197 185 175 182 183 202 210 194 189 194 194 193 188 195 200 201 208 211